Tacoma Narrows, WA
on Friday, December 7, 2012

Friday
Previous Day Next Day
Daily Summary
 ActualAverageRecord
Temperature
Mean Temperature °F °F  
Max Temperature 46°F 45°F 48°F (1996)
Min Temperature 39°F 38°F 21°F (2013)
Degree Days
Heating Degree Days 22    
Moisture
Dew Point 38°F   
Average Humidity 80    
Maximum Humidity 89    
Minimum Humidity 63    
Precipitation
Precipitation 0.19 in in in ()
Wind
Wind Speed 12 mph   
Max Wind Speed 18 mph   
Max Gust Speed 29 mph   
Visibility 10 miles   
Events Rain   
Averages and records for this station are not official NWS values.
Key: T is trace of precipitation, MM is missing value
Source: NWS Daily Summary
Seasonal Weather Averages
Time(PST)TemperatureDew PointHumidity Pressure Visibility Wind DirectionWind SpeedGust SpeedPrecipitationEvents Conditions
12:09 AM 42.8°F 39.2°F 87% 30.10 in 10.0 miles SSW 11.5 mph - 0.00 in   Overcast
12:53 AM 44.1°F 39.0°F 82% 30.10 in 10.0 miles South 12.7 mph - 0.00 in   Overcast
1:30 AM 44.6°F 39.2°F 81% 30.09 in 8.0 miles South 12.7 mph - 0.02 in Rain Light Rain
1:53 AM 44.1°F 39.9°F 85% 30.09 in 6.0 miles South 11.5 mph - 0.06 in Rain Light Rain
2:08 AM 42.8°F 39.2°F 87% 30.08 in 8.0 miles SSW 6.9 mph - 0.02 in Rain Light Rain
2:25 AM 44.6°F 39.2°F 81% 30.08 in 10.0 miles South 15.0 mph 19.6 mph 0.03 in Rain Light Rain
2:40 AM 44.6°F 39.2°F 81% 30.08 in 9.0 miles SSW 9.2 mph 17.3 mph 0.04 in Rain Light Rain
2:48 AM 44.6°F 39.2°F 81% 30.08 in 10.0 miles SSW 9.2 mph 16.1 mph 0.04 in Rain Light Rain
2:53 AM 44.1°F 39.9°F 85% 30.09 in 10.0 miles SW 11.5 mph 19.6 mph 0.05 in Rain Light Rain
3:16 AM 44.6°F 41.0°F 87% 30.07 in 7.0 miles SSW 10.4 mph - 0.02 in Rain Light Rain
3:44 AM 44.6°F 41.0°F 87% 30.06 in 10.0 miles South 13.8 mph 23.0 mph 0.02 in   Overcast
3:53 AM 44.1°F 39.9°F 85% 30.06 in 10.0 miles South 13.8 mph 23.0 mph 0.02 in   Overcast
4:46 AM 44.6°F 39.2°F 81% 30.04 in 10.0 miles South 16.1 mph - N/A   Overcast
4:53 AM 44.1°F 39.9°F 85% 30.05 in 10.0 miles South 17.3 mph 24.2 mph 0.00 in Rain Light Rain
5:53 AM 44.1°F 41.0°F 89% 30.03 in 7.0 miles South 15.0 mph 23.0 mph 0.03 in Rain Light Rain
6:35 AM 44.6°F 41.0°F 87% 30.00 in 10.0 miles South 17.3 mph - 0.03 in Rain Light Rain
6:45 AM 44.6°F 41.0°F 87% 30.00 in 10.0 miles South 16.1 mph 24.2 mph 0.03 in   Overcast
6:53 AM 45.0°F 41.0°F 86% 30.01 in 10.0 miles SSW 18.4 mph 26.5 mph 0.03 in   Overcast
7:02 AM 44.6°F 41.0°F 87% 30.00 in 10.0 miles SSW 13.8 mph 26.5 mph N/A   Overcast
7:10 AM 44.6°F 41.0°F 87% 30.00 in 10.0 miles SSW 11.5 mph 25.3 mph N/A   Overcast
7:20 AM 44.6°F 41.0°F 87% 29.99 in 10.0 miles South 12.7 mph 20.7 mph N/A   Overcast
7:27 AM 44.6°F 41.0°F 87% 29.99 in 10.0 miles SSW 11.5 mph 20.7 mph N/A   Overcast
7:53 AM 45.0°F 41.0°F 86% 30.00 in 10.0 miles SSW 13.8 mph 21.9 mph 0.00 in   Overcast
8:27 AM 44.6°F 39.2°F 81% 29.98 in 10.0 miles SSW 13.8 mph 23.0 mph N/A   Scattered Clouds
8:53 AM 45.0°F 39.9°F 82% 29.99 in 10.0 miles SSW 16.1 mph 25.3 mph N/A   Partly Cloudy
9:53 AM 45.0°F 39.9°F 82% 30.00 in 10.0 miles SSW 10.4 mph 20.7 mph N/A   Partly Cloudy
10:53 AM 45.0°F 39.0°F 80% 30.00 in 10.0 miles SW 15.0 mph 23.0 mph N/A   Scattered Clouds
11:53 AM 46.0°F 37.9°F 73% 29.98 in 10.0 miles SSW 18.4 mph 28.8 mph N/A   Scattered Clouds
12:53 PM 45.0°F 37.0°F 74% 29.99 in 10.0 miles WSW 11.5 mph 21.9 mph N/A   Clear
1:53 PM 45.0°F 33.1°F 63% 30.00 in 10.0 miles SW 15.0 mph 25.3 mph N/A   Clear
2:53 PM 44.1°F 33.1°F 65% 30.03 in 10.0 miles WSW 8.1 mph 17.3 mph N/A   Clear
3:53 PM 43.0°F 33.1°F 68% 30.06 in 10.0 miles WSW 11.5 mph 18.4 mph N/A   Scattered Clouds
4:53 PM 42.1°F 33.1°F 70% 30.07 in 10.0 miles WSW 8.1 mph 16.1 mph N/A   Clear
5:53 PM 42.1°F 33.1°F 70% 30.09 in 10.0 miles SSW 4.6 mph - N/A   Clear
6:53 PM 41.0°F 33.1°F 73% 30.10 in 10.0 miles SW 6.9 mph - N/A   Clear
7:53 PM 41.0°F 32.0°F 70% 30.12 in 10.0 miles SW 5.8 mph - N/A   Clear
8:53 PM 41.0°F 32.0°F 70% 30.13 in 10.0 miles Variable 6.9 mph - N/A   Clear
9:53 PM 39.9°F 32.0°F 73% 30.14 in 10.0 miles SSW 6.9 mph - N/A   Overcast
10:53 PM 41.0°F 32.0°F 70% 30.15 in 10.0 miles SSW 8.1 mph - N/A   Overcast
11:53 PM 41.0°F 33.1°F 73% 30.16 in 10.0 miles SSW 6.9 mph - N/A   Mostly Cloudy
Moon Phase
Dec. 07 Dec. 13 Dec. 20 Dec. 28 Jan. 04
Sunrise:07:43 AM (PST) Moon Rise:12:46 AM (PST)12/7
Sunset:04:20 PM (PST) Moon Set:12:40 PM (PST)12/7

Copyright © 2014 The Weather Underground, Inc.